Вернуться в каталог

STARLINK-4633

АктивенСвязьVLEO
NORAD 53964·PAYLOAD·🇺🇸 United States

Запущен Oct 5, 2022 с Vandenberg Space Force Base

Loading…

Ближайшие Пролёты (ближайшие 24 часа)

TLE

СвежийSource: CelesTrak SupGP

Эпоха: Sep 15, 2026, 02:53 UTC

1 53964C 22125A   26258.12062500 -.00029729  00000+0 -87831-3 0  2586
2 53964  53.1583  86.6868 0001153  81.9756 195.9643 15.34406645    18

Отслеживайте STARLINK-4633 в реальном времени с AllMySat

Download on the App Store